User: anonymous   Login
Location: Newark
(48.8833°N, 0.9236°W)
Time: 15:50:22
(UTC+00:00)
Language:

A-11 Canister half - Orbit

View from above orbital plane
View from above orbital plane
View from above satellite
View from above satellite

Ground track
Ground track

The orbit data is extracted from the following two-line orbital elements,

1    53U 60009E   19321.70921889 +.00000026 +00000-0 +10872-2 0  9991
2    53 047.2744 195.0497 0097334 171.7559 188.4854 12.17232939642654
Epoch (UTC): 17 November 2019 17:01:16
Eccentricity: 0.0097334
inclination: 47.2744°
perigee height: 1527 km
apogee height: 1682 km
right ascension of ascending node: 195.0497°
argument of perigee: 171.7559°
revolutions per day: 12.17232939
mean anomaly at epoch: 188.4854°
orbit number at epoch: 64265

The dashed part of the orbit path shows where the satellite is in the earth's shadow,  

DLR